20.3,27.0,1018.9,202007110030
19.6,36.5,1019.1,202007110100
19.2,42.0,1019.1,202007110130
19.1,44.5,1019.0,202007110200
18.3,59.7,1019.0,202007110230
18.1,69.5,1019.2,202007110300
18.1,67.8,1019.2,202007110330
18.1,72.3,1019.1,202007110400
16.8,89.8,1019.3,202007110430
18.0,88.8,1019.4,202007110500
18.0,90.8,1019.8,202007110530
17.6,96.6,1020.2,202007110600
17.7,97.9,1020.3,202007110630
16.2,99.9,1020.5,202007110700
16.3,99.9,1020.8,202007110730
16.0,99.9,1021.2,202007110800
15.9,99.9,1021.2,202007110830
16.9,99.9,1021.5,202007110900
17.1,81.3,1021.8,202007110930
16.4,86.0,1022.3,202007111000
17.7,85.0,1022.2,202007111030
18.5,55.2,1022.2,202007111100
18.5,50.9,1022.2,202007111130
18.1,53.9,1022.4,202007111200
18.6,44.7,1022.6,202007111230
18.1,36.9,1022.8,202007111300
18.6,30.0,1022.7,202007111330
18.8,29.5,1022.4,202007111400
18.4,60.0,1022.7,202007111430
18.0,55.9,1022.9,202007111500
19.5,34.9,1023.0,202007111530
19.2,21.7,1023.0,202007111600
19.4,22.5,1023.0,202007111630
19.1,18.2,1023.0,202007111700
18.7,19.8,1023.1,202007111730
18.7,21.3,1023.4,202007111800
18.5,21.1,1023.4,202007111830
16.9,26.7,1023.7,202007111900
17.1,25.8,1023.9,202007111930
16.9,24.7,1024.1,202007112000
16.2,30.1,1024.3,202007112030
15.6,41.2,1024.5,202007112100
15.2,99.9,1024.6,202007112130
15.2,99.9,1024.7,202007112200
14.8,99.9,1024.5,202007112230
14.9,99.9,1024.6,202007112300
14.9,99.9,1024.7,202007112330
14.8,99.9,1024.6,202007120000
15.1,99.9,1024.5,202007120030
14.9,99.9,1024.5,202007120100
14.6,99.9,1024.4,202007120130
14.6,99.9,1024.3,202007120200
14.5,99.9,1024.2,202007120230
14.4,99.9,1024.3,202007120300
14.6,99.9,1024.4,202007120330
14.8,99.9,1024.5,202007120400
18.7,99.9,1024.7,202007120430
16.0,67.5,1025.1,202007120500
18.8,60.5,1025.2,202007120530
19.9,43.2,1025.6,202007120600
19.5,48.7,1025.5,202007120630
19.7,50.0,1025.9,202007120700
18.3,44.4,1025.8,202007120730
16.9,74.0,1025.8,202007120800
19.4,36.2,1025.7,202007120830
18.3,38.2,1025.9,202007120900
17.5,53.5,1025.9,202007120930
17.2,45.5,1026.2,202007121000
16.5,50.5,1026.0,202007121030
16.8,34.9,1026.2,202007121100
16.8,35.5,1026.0,202007121130
18.2,17.0,1025.9,202007121200
19.1,15.6,1025.7,202007121230
19.2,11.1,1025.6,202007121300
19.3,12.6,1025.4,202007121330
18.9,12.1,1025.4,202007121400
18.5,17.2,1025.4,202007121430
18.6,17.0,1025.3,202007121500
18.9,15.5,1025.3,202007121530
19.0,16.0,1025.1,202007121600
18.5,20.0,1025.1,202007121630
18.8,17.3,1025.1,202007121700
18.6,17.0,1025.1,202007121730
18.6,16.2,1025.0,202007121800
17.7,22.6,1025.0,202007121830
17.4,22.6,1025.0,202007121900
17.2,22.7,1025.3,202007121930
17.0,23.7,1025.2,202007122000
17.0,23.7,1025.1,202007122030
16.2,26.8,1025.1,202007122100
16.2,26.2,1024.8,202007122130
15.8,27.5,1024.8,202007122200
15.4,28.7,1024.7,202007122230
15.3,29.2,1024.6,202007122300
15.0,33.0,1024.3,202007122330
14.8,33.0,1024.2,202007130000
